[[{"header":{"parameterUnit":"m.s-1","parameterCategory":1,"la1":30.2991,"la2":30.254,"lo1":-89.0895,"lo2":-89.0444,"dy":0.0017,"dx":0.0017,"nx":28,"ny":28,"refTime":"2023-10-12T03:00:00:Z","depth":0,"parameterNumber":2,"parameterNumberName":"U-component_of_WINDS"},"data":[0,0,0,0,0,0,0,0,0,0,0,0,0,0,0,0,0,0,0,0,0,0,0,0,0,0,0,0,0,0,0,0,0,0,0,0,0,0,0,0,0,0,0,0,0,0,0,0,0,0,0,0,0,0,0,0,0,0,-2.0592,-2.0592,0,-2.0587,-2.0587,-2.0587,-2.0506,-2.0504,-2.0502,-2.05,-2.0496,-2.0498,-2.05,0,0,0,0,0,0,0,0,0,0,0,0,0,-2.0534,-2.0535,-2.0592,-2.0592,-2.0592,-2.0587,-2.0587,-2.0587,-2.0507,-2.0504,-2.0502,-2.0499,-2.0496,-2.0498,-2.05,0,0,0,0,0,0,0,0,0,0,0,0,0,-2.0547,-2.0536,-2.0592,-2.0552,-2.0548,-2.0587,-2.0587,-2.0587,-2.0507,-2.0504,-2.0501,-2.0498,-2.0495,-2.0498,-2.05,-2.0579,0,0,-2.0509,-2.051,0,0,0,0,0,0,0,0,-2.0546,-2.0549,-2.0558,-2.0554,-2.055,-2.0544,-2.0565,-2.0584,-2.0508,-2.0523,-2.05,-2.0497,-2.0515,-2.0516,-2.0521,-2.0578,-2.0578,-2.0509,-2.051,-2.0512,-2.0512,0,0,0,0,0,0,0,-2.0546,-2.0549,-2.059,-2.0558,-2.0553,-2.0534,-2.0532,-2.0568,-2.0536,-2.0521,-2.0515,-2.0516,-2.0512,-2.0519,-2.0521,-2.0578,-2.0509,-2.0511,-2.0513,-2.0514,-2.0698,-2.0701,0,0,0,0,0,0,-2.055,-2.0549,-2.059,-2.059,-2.0541,-2.0537,-2.0536,-2.0549,-2.0535,-2.053,-2.0518,-2.0512,-2.0516,-2.0518,-2.052,-2.061,-2.0512,-2.0514,-2.0516,-2.0695,-2.0699,-2.0702,0,0,0,0,0,0,-2.0549,-2.0555,-2.0591,-2.0568,-2.0571,-2.0541,-2.0558,-2.0551,-2.0557,-2.0533,-2.0527,-2.0531,-2.0514,-2.0517,-2.0564,-2.0609,-2.0515,-2.0518,-2.0691,-2.0696,-2.0701,-2.0792,0,0,0,0,0,0,-2.0548,-2.0555,-2.0584,-2.0569,-2.0572,-2.0635,-2.056,-2.0553,-2.0562,-2.0554,-2.0544,-2.0539,-2.0511,-2.0561,-2.0567,-2.0611,-2.052,-2.0687,-2.0693,-2.0699,-2.0785,-2.0799,-2.0812,0,0,0,0,0,-2.0546,-2.0611,-2.0586,-2.0592,-2.0608,-2.0638,-2.0639,-2.0606,-2.0566,-2.0595,-2.058,-2.0539,-2.0603,-2.0566,-2.0573,-2.0618,-2.0684,-2.0691,-2.0699,-2.0778,-2.0796,-2.0811,0,0,0,0,0,0,-2.0633,-2.0608,-2.058,-2.0642,-2.0642,-2.0624,-2.066,-2.0626,-2.0638,-2.063,-2.0588,-2.0586,-2.0641,-2.0634,-2.0593,-2.0693,-2.0636,-2.0645,-2.0695,-2.0712,-2.0725,-2.0725,-2.0522,0,0,0,0,0,-2.0659,-2.0684,-2.0661,-2.0718,-2.0719,-2.069,-2.0701,-2.0675,-2.0674,-2.0674,-2.0662,-2.0663,-2.0683,-2.0697,-2.0714,-2.0783,-2.078,-2.0818,-2.0831,-2.0842,-2.0851,-2.0886,-2.0902,-2.0726,-2.0726,-2.0726,0,0,-2.0713,-2.0703,-2.0721,-2.0735,-2.0732,-2.0759,-2.069,-2.0722,-2.0742,-2.0679,-2.0723,-2.0714,-2.0712,-2.0771,-2.0796,-2.0767,-2.0898,-2.0852,-2.0861,-2.0863,-2.0895,-2.0912,-2.0927,-2.0731,-2.0731,-2.073,0,0,-2.0826,-2.0821,-2.0867,-2.0865,-2.0862,-2.0841,-2.0853,-2.0839,-2.0831,-2.0874,-2.0827,-2.085,-2.0886,-2.0886,-2.0891,-2.1003,-2.0966,-2.101,-2.1081,-2.1115,-2.1129,-2.1141,-2.1181,-2.1196,-2.1018,-2.1019,-2.1019,0,-2.0894,-2.0933,-2.0895,-2.093,-2.0937,-2.088,-2.0926,-2.0927,-2.0929,-2.0936,-2.0903,-2.0946,-2.0941,-2.0998,-2.1026,-2.1032,-2.1043,-2.1011,-2.113,-2.1142,-2.1153,-2.119,-2.1205,-2.1024,-2.1023,-2.1023,-2.1022,0,-2.1016,-2.1044,-2.1082,-2.1085,-2.1096,-2.1137,-2.1105,-2.1121,-2.1094,-2.1077,-2.1122,-2.1114,-2.1128,-2.1139,-2.1114,-2.1194,-2.1176,-2.1138,-2.108,-2.1175,-2.121,-2.1224,-2.1031,-2.103,-2.1028,-2.1027,0,0,-2.1184,-2.1165,-2.1179,-2.1179,-2.1171,-2.1192,-2.1229,-2.1242,-2.1257,-2.1261,-2.1291,-2.1322,-2.1286,-2.1292,-2.1266,-2.1297,-2.1385,-2.1254,-2.1254,-2.1279,-2.1472,-2.15,-2.1517,-2.1361,-2.1364,-2.1366,-2.1472,0,-2.1292,-2.1355,-2.1322,-2.1389,-2.1413,-2.136,-2.1392,-2.1391,-2.1376,-2.1395,-2.1379,-2.1402,-2.1353,-2.1356,-2.1384,-2.1369,-2.1424,-2.1361,-2.1389,-2.139,-2.139,-2.1535,-2.1566,-2.1666,-2.1485,-2.1487,-2.1489,0,-2.1427,-2.1435,-2.1505,-2.1491,-2.15,-2.153,-2.1539,-2.1558,-2.1555,-2.1542,-2.1548,-2.1514,-2.155,-2.1493,-2.1542,-2.15,-2.151,-2.1504,-2.1507,-2.1508,-2.1445,-2.154,-2.1698,-2.1713,-2.151,-2.1508,-2.1507,0,-2.1541,-2.157,-2.1615,-2.1617,-2.1602,-2.1624,-2.1619,-2.1613,-2.1623,-2.1631,-2.1637,-2.1649,-2.1656,-2.1667,-2.1637,-2.1599,-2.169,-2.1631,-2.168,-2.1681,-2.1702,-2.1701,-2.1863,-2.1709,-2.1709,-2.1709,-2.1708,0,-2.1666,-2.171,-2.1666,-2.1694,-2.1742,-2.1703,-2.1752,-2.1741,-2.1736,-2.1761,-2.1716,-2.174,-2.1699,-2.172,-2.1697,-2.1741,-2.1744,-2.1735,-2.1728,-2.1739,-2.174,-2.1744,-2.1736,-2.1713,-2.1712,-2.1711,-2.171,0,-2.1801,-2.1774,-2.1819,-2.1801,-2.1797,-2.1833,-2.1818,-2.1843,-2.1825,-2.1856,-2.1862,-2.1834,-2.1855,-2.1827,-2.1846,-2.183,-2.189,-2.1873,-2.1891,-2.1886,-2.1937,-2.1932,-2.2107,-2.2127,-2.1961,-2.1963,-2.1964,0,-2.1882,-2.1915,-2.19,-2.1913,-2.191,-2.1932,-2.1941,-2.1904,-2.1916,-2.1914,-2.194,-2.1957,-2.1969,-2.2006,-2.1988,-2.2002,-2.1984,-2.2045,-2.1986,-2.1996,-2.1985,-2.1983,-2.1986,-2.2057,-2.2059,-2.206,-2.2062,0,-2.2028,-2.2013,-2.2028,-2.2038,-2.205,-2.2057,-2.206,-2.2073,-2.2034,-2.205,-2.2071,-2.208,-2.2099,-2.2117,-2.2126,-2.2121,-2.2085,-2.208,-2.2092,-2.2103,-2.2112,-2.2107,-2.1923,-2.2076,-2.2075,-2.2074,-2.2073,-2.2072,-2.2138,-2.2165,-2.2158,-2.2176,-2.2174,-2.2178,-2.22,-2.2184,-2.2201,-2.2213,-2.219,-2.2217,-2.2213,-2.2221,-2.222,-2.224,-2.2214,-2.2232,-2.2236,-2.2241,-2.2248,-2.2109,-2.2242,-2.2241,-2.2241,-2.2241,-2.224,0,-2.2282,-2.2274,-2.2291,-2.2296,-2.2311,-2.2275,-2.2276,-2.2291,-2.2314,-2.2313,-2.2325,-2.2349,-2.2366,-2.2349,-2.2363,-2.2382,-2.2366,-2.2387,-2.2385,-2.2384,-2.2271,-2.2259,-2.24,-2.24,-2.24,-2.24,-2.24,-2.24,-2.2358,-2.24,-2.2383,-2.2424,-2.2416,-2.2441,-2.2445,-2.2449,-2.2447,-2.2476,-2.2489,-2.2477,-2.247,-2.2482,-2.2496,-2.2491,-2.2498,-2.2525,-2.2513,-2.2408,-2.2392,-2.2378,-2.2366,-2.2527,-2.2527,-2.2624,-2.2625,-2.2626]},{"header":{"parameterUnit":"m.s-1","parameterCategory":1,"la1":30.2991,"la2":30.254,"lo1":-89.0895,"lo2":-89.0444,"dy":0.0017,"dx":0.0017,"nx":28,"ny":28,"refTime":"2023-10-12T03:00:00:Z","depth":0,"parameterNumber":3,"parameterNumberName":"V-component_of_WINDS"},"data":[0,0,0,0,0,0,0,0,0,0,0,0,0,0,0,0,0,0,0,0,0,0,0,0,0,0,0,0,0,0,0,0,0,0,0,0,0,0,0,0,0,0,0,0,0,0,0,0,0,0,0,0,0,0,0,0,0,0,-2.5672,-2.5673,0,-2.5746,-2.5746,-2.5747,-2.5754,-2.5753,-2.5752,-2.5751,-2.5825,-2.5828,-2.5831,0,0,0,0,0,0,0,0,0,0,0,0,0,-2.5536,-2.5539,-2.5672,-2.5673,-2.5674,-2.5746,-2.5747,-2.5748,-2.5754,-2.5753,-2.5752,-2.5751,-2.5825,-2.5828,-2.5831,0,0,0,0,0,0,0,0,0,0,0,0,0,-2.5601,-2.554,-2.5672,-2.5686,-2.5688,-2.5745,-2.5747,-2.5748,-2.5754,-2.5753,-2.5752,-2.575,-2.5824,-2.5827,-2.5831,-2.588,0,0,-2.5844,-2.5846,0,0,0,0,0,0,0,0,-2.5597,-2.5606,-2.5683,-2.5685,-2.5687,-2.5739,-2.5726,-2.5792,-2.5754,-2.5729,-2.5751,-2.575,-2.5798,-2.5804,-2.582,-2.5884,-2.5887,-2.5844,-2.5847,-2.5848,-2.585,0,0,0,0,0,0,0,-2.5593,-2.5603,-2.5701,-2.5684,-2.5687,-2.5688,-2.5696,-2.5738,-2.5769,-2.5731,-2.5732,-2.574,-2.5799,-2.5816,-2.5822,-2.5888,-2.5844,-2.5848,-2.585,-2.5852,-2.5994,-2.5995,0,0,0,0,0,0,-2.5586,-2.5599,-2.5699,-2.5703,-2.5639,-2.5691,-2.57,-2.5724,-2.5768,-2.5774,-2.5741,-2.574,-2.581,-2.5817,-2.5825,-2.5884,-2.5848,-2.5852,-2.5855,-2.5993,-2.5994,-2.5996,0,0,0,0,0,0,-2.5583,-2.5595,-2.5696,-2.5652,-2.5665,-2.5695,-2.5721,-2.5726,-2.5743,-2.5776,-2.5782,-2.5753,-2.5809,-2.5819,-2.5866,-2.5887,-2.5854,-2.5858,-2.5991,-2.5993,-2.5995,-2.6003,0,0,0,0,0,0,-2.5579,-2.5594,-2.5613,-2.5652,-2.5667,-2.5737,-2.5723,-2.5728,-2.575,-2.575,-2.5789,-2.5795,-2.5809,-2.586,-2.587,-2.5892,-2.5861,-2.5989,-2.5992,-2.5994,-2.6001,-2.6005,-2.6009,0,0,0,0,0,-2.5574,-2.5612,-2.5614,-2.5626,-2.5691,-2.5738,-2.5746,-2.5763,-2.5752,-2.5771,-2.5792,-2.5793,-2.5883,-2.5865,-2.5876,-2.5899,-2.5988,-2.5991,-2.5994,-2.6,-2.6004,-2.6009,0,0,0,0,0,0,-2.5575,-2.5618,-2.562,-2.5672,-2.5701,-2.5739,-2.5764,-2.5767,-2.58,-2.5798,-2.5816,-2.5825,-2.5872,-2.589,-2.587,-2.5948,-2.5934,-2.594,-2.5934,-2.5939,-2.5943,-2.5937,-2.5864,0,0,0,0,0,-2.5581,-2.5615,-2.5651,-2.5693,-2.5708,-2.5733,-2.5754,-2.5764,-2.5795,-2.5807,-2.5832,-2.5862,-2.5896,-2.5919,-2.5953,-2.6004,-2.6012,-2.6025,-2.6029,-2.6032,-2.6036,-2.6064,-2.607,-2.6006,-2.6006,-2.6006,0,0,-2.5594,-2.5622,-2.5642,-2.5694,-2.5718,-2.5753,-2.5744,-2.5781,-2.5807,-2.5813,-2.5859,-2.5878,-2.5913,-2.5962,-2.5985,-2.5979,-2.6056,-2.6036,-2.6038,-2.6041,-2.6068,-2.6074,-2.6079,-2.6008,-2.6007,-2.6007,0,0,-2.5635,-2.566,-2.5698,-2.5722,-2.5758,-2.5775,-2.5784,-2.5821,-2.5834,-2.588,-2.5885,-2.5916,-2.5976,-2.6,-2.602,-2.607,-2.6072,-2.6081,-2.61,-2.6127,-2.6132,-2.6136,-2.6153,-2.6159,-2.6085,-2.6085,-2.6085,0,-2.5647,-2.57,-2.5717,-2.5754,-2.5776,-2.5783,-2.5821,-2.5843,-2.5889,-2.5904,-2.5897,-2.5971,-2.5995,-2.605,-2.6062,-2.6078,-2.6088,-2.6076,-2.613,-2.6134,-2.6139,-2.6156,-2.6162,-2.6086,-2.6086,-2.6086,-2.6085,0,-2.5712,-2.5749,-2.5775,-2.5818,-2.5843,-2.5881,-2.5902,-2.5926,-2.5933,-2.595,-2.5997,-2.6026,-2.6066,-2.6079,-2.6087,-2.6135,-2.613,-2.6126,-2.6112,-2.6146,-2.6161,-2.6168,-2.6087,-2.6086,-2.6086,-2.6086,0,0,-2.5756,-2.5808,-2.5817,-2.5837,-2.5877,-2.5906,-2.5943,-2.5982,-2.6001,-2.6032,-2.6063,-2.6113,-2.611,-2.6133,-2.6143,-2.6167,-2.6203,-2.616,-2.6161,-2.6166,-2.6257,-2.626,-2.6267,-2.6205,-2.6206,-2.6207,-2.6254,0,-2.5802,-2.5869,-2.5884,-2.5941,-2.5975,-2.5982,-2.6014,-2.6042,-2.6059,-2.609,-2.6108,-2.6143,-2.6136,-2.615,-2.6173,-2.6194,-2.6222,-2.6191,-2.6234,-2.6235,-2.6225,-2.6275,-2.6278,-2.6321,-2.6261,-2.6262,-2.6262,0,-2.5864,-2.5896,-2.5957,-2.5992,-2.6007,-2.6035,-2.6072,-2.6101,-2.6133,-2.6143,-2.6168,-2.6176,-2.6215,-2.6199,-2.6252,-2.6231,-2.6249,-2.6262,-2.6264,-2.6268,-2.6251,-2.628,-2.6335,-2.6341,-2.6272,-2.6272,-2.6271,0,-2.5889,-2.5948,-2.5991,-2.6008,-2.605,-2.607,-2.6089,-2.6119,-2.6141,-2.6173,-2.6187,-2.6223,-2.6243,-2.627,-2.6287,-2.6274,-2.6338,-2.6324,-2.6348,-2.6347,-2.6361,-2.6359,-2.6418,-2.6373,-2.6373,-2.6373,-2.6373,0,-2.5938,-2.5975,-2.6003,-2.603,-2.6071,-2.6088,-2.6128,-2.6147,-2.6174,-2.6204,-2.6212,-2.624,-2.6261,-2.6292,-2.6305,-2.6347,-2.6356,-2.6365,-2.6368,-2.6364,-2.6363,-2.6376,-2.6373,-2.6375,-2.6374,-2.6374,-2.6374,0,-2.5973,-2.5994,-2.6042,-2.6078,-2.6088,-2.6116,-2.6147,-2.6173,-2.619,-2.6228,-2.6237,-2.6264,-2.6301,-2.632,-2.6366,-2.6375,-2.6422,-2.6423,-2.6411,-2.6412,-2.6434,-2.6432,-2.6503,-2.6514,-2.6462,-2.6462,-2.6463,0,-2.6003,-2.6031,-2.607,-2.6091,-2.611,-2.6143,-2.6166,-2.6184,-2.6207,-2.6245,-2.6266,-2.6303,-2.6333,-2.6392,-2.6415,-2.645,-2.6452,-2.6475,-2.6457,-2.6452,-2.6452,-2.645,-2.6452,-2.6478,-2.6478,-2.6479,-2.6479,0,-2.6054,-2.6062,-2.6094,-2.613,-2.6156,-2.6185,-2.6214,-2.623,-2.6253,-2.6278,-2.6316,-2.6339,-2.6386,-2.6422,-2.6459,-2.6478,-2.6482,-2.6484,-2.6491,-2.6487,-2.6479,-2.6483,-2.6419,-2.6482,-2.6482,-2.6482,-2.6482,-2.6481,-2.6087,-2.6112,-2.6143,-2.6178,-2.6202,-2.6228,-2.6254,-2.6274,-2.6305,-2.6345,-2.6353,-2.6393,-2.6423,-2.6473,-2.6493,-2.6523,-2.6519,-2.6529,-2.6532,-2.6534,-2.6535,-2.6474,-2.653,-2.653,-2.653,-2.653,-2.653,0,-2.6137,-2.6157,-2.619,-2.6229,-2.6257,-2.6258,-2.629,-2.6313,-2.6347,-2.6375,-2.6405,-2.6448,-2.6483,-2.6509,-2.6545,-2.6564,-2.6567,-2.6573,-2.6572,-2.6576,-2.6537,-2.6527,-2.657,-2.657,-2.657,-2.657,-2.657,-2.657,-2.6167,-2.6209,-2.6221,-2.6275,-2.6295,-2.6334,-2.6351,-2.6375,-2.6398,-2.6445,-2.6474,-2.6491,-2.6518,-2.6556,-2.6588,-2.6595,-2.6607,-2.6613,-2.662,-2.6583,-2.6579,-2.6575,-2.6565,-2.6616,-2.6616,-2.6656,-2.6656,-2.6657]}]]